XJS A (43518 NORAD) Tracking and Keplerian Element Data

This shows tracking and keplerian element data for the satellite.

Feedback or suggestion? Click here.




ElementValue
Catalog43518
NameXJS A
Epoch Orbit439
Epoch Day206.82039921
Epoch Year2018
RAAN121.0924
Inclination35.0048
Eccentricity0.0004757
Argument of Perigee145.3294
Mean Anonmoly257.3652
Mean Motion15.27953747
Decay Rate-3.9E-07
L11 43518U 18054A 18206.82039921 -.00000039 00000-0 00000-0 0 9993
L22 43518 35.0048 121.0924 0004757 145.3294 257.3652 15.27953747 4399

Live tracking and technical data element details for XJS A (NORAD 43518). XJS A can be tracked NOW for your location showing map with azimuth and elevation plus other details from your city location.

Track the satellite on the map from your city or location and see movement details for azimuth, elevation, latitude, longitude, range, height, and movement on the map or in text.







IsCatalogInMostPopularTable: catalog: 43518, numindb: 39
Update: records affected: 1



GetName: 43518 XJS A

Hit Count: updated at: Tue, 20 Nov 2018 07:45:37 GMT